Content
SEND FEEDBACK

Daily
Averages
Monthly
Summary
United States of America

SAINT JOHN HARBOR, ALASKA


Home > North America > United States > Alaska
Elevation: 10 meters     Latitude: 56 28N     Longitude: 133 06W

WEATHER
 
SELECT A DAY
Number of Records: 440,383;   Date Range: 1/1/95 - 11/26/14
 
SHARE

PRINT THIS DATA

[ ← Previous Day ]
WEATHER ALMANAC - 13 FEBRUARY, 2013
[ Next Day → ]
[ °F ]   °C
Weather ElementAverageHighLow
Temperature1.4 °C4 °C (1:16 pm) (8:56 pm)
Dewpoint-2 °C0 °C (11:36 am) (7:00 pm)
Humidity78.7 %93 % (12:56 am)61 % (6:16 pm)
Barometer1007.1 hPa1026.4 hPa (12:56 pm) (7:00 pm)
Wind Speed3.9 km/h14.8 km/h (2:56 pm)
Weather ElementAverage
Visibility15.3 km
Wind DirectionENE (68.5 °)

Weather ElementTotal
Precipitation---
Heating Degree Days25.2 (Base 18.3)
Averaged from 59 records on 13 February, 2013
WEATHER CONDITIONS BREAKOUT
WIND DIRECTION BREAKOUT
WEATHER BY HOUR - 13 FEBRUARY, 2013
[ °F ]   °C
Local TimeTemperatureDewpointHumidityBarometerVisibilityWind DirectionWind SpeedGust SpeedPrecipitationEventsConditions
12:36 AM0 °C-2 °C87 %1022.4 hPa16.1 kmWSW (250°)5.6 km/hOvercast
12:56 AM0 °C-1 °C93 %1022.4 hPa16.1 kmCalmOvercast
1:16 AM0 °C-2 °C87 %1022.7 hPa16.1 kmCalmOvercast
1:36 AM0 °C-2 °C87 %1023 hPa16.1 kmSSW (210°)5.6 km/hOvercast
1:56 AM0 °C-2 °C87 %1023 hPa16.1 kmCalmOvercast
2:16 AM0 °C-2 °C87 %1023 hPa16.1 kmCalmOvercast
2:36 AM0 °C-2 °C87 %1023.4 hPa16.1 kmWSW (240°)5.6 km/hOvercast
2:56 AM0 °C-2 °C87 %1023.4 hPa16.1 kmCalmOvercast
3:16 AM0 °C-2 °C87 %1023.7 hPa16.1 kmCalmMostly Cloudy
3:36 AM0 °C-2 °C87 %1024 hPa14.5 kmCalmOvercast
3:56 AM0 °C-1 °C93 %1024 hPa16.1 kmCalmOvercast
4:16 AM0 °C-1 °C93 %1024.4 hPa16.1 kmCalmOvercast
4:36 AM0 °C-1 °C93 %1024.4 hPa12.9 kmCalmOvercast
4:56 AM0 °C-1 °C93 %1024.4 hPa4.8 kmCalmOvercast
5:16 AM0 °C-1 °C93 %1024.4 hPa8 kmCalmOvercast
5:56 AM0 °C-1 °C93 %1024.4 hPa8 kmCalmOvercast
6:16 AM0 °C-2 °C87 %1024.4 hPa8 kmSSW (200°)5.6 km/hOvercast
6:36 AM0 °C-1 °C93 %1024.4 hPa8 kmCalmOvercast
6:56 AM0 °C-2 °C87 %1024.4 hPa16.1 kmCalmMostly Cloudy
7:16 AM0 °C-2 °C87 %1024.4 hPa16.1 kmCalmMostly Cloudy
7:36 AM0 °C-1 °C93 %1024.7 hPa16.1 kmSW (230°)7.4 km/hMostly Cloudy
7:56 AM0 °C-1 °C93 %1025.1 hPa16.1 kmCalmMostly Cloudy
8:16 AM0 °C-1 °C93 %1025.4 hPa16.1 kmCalmMostly Cloudy
9:16 AM1 °C-1 °C87 %1025.7 hPa16.1 kmCalmOvercast
9:36 AM1 °C-1 °C87 %1025.7 hPa16.1 kmWest (260°)5.6 km/hOvercast
9:56 AM1 °C-1 °C87 %1025.7 hPa16.1 kmCalmMostly Cloudy
10:16 AM1 °C-1 °C87 %1026.1 hPa16.1 kmCalmMostly Cloudy
10:36 AM2 °C-1 °C81 %1026.1 hPa16.1 kmCalmMostly Cloudy
10:56 AM2 °C-1 °C81 %1026.1 hPa16.1 kmCalmMostly Cloudy
11:16 AM2 °C-1 °C81 %1026.1 hPa16.1 kmCalmMostly Cloudy
11:36 AM3 °C0 °C81 %1026.1 hPa16.1 kmSSW (210°)7.4 km/hMostly Cloudy
11:56 AM3 °C-1 °C75 %1026.1 hPa16.1 kmCalmMostly Cloudy
12:16 PM3 °C-1 °C75 %1026.1 hPa16.1 kmCalmMostly Cloudy
12:36 PM3 °C-1 °C75 %1026.1 hPa16.1 kmCalmMostly Cloudy
12:56 PM3 °C-2 °C70 %1026.4 hPa16.1 kmCalmMostly Cloudy
1:16 PM4 °C-1 °C70 %1026.1 hPa16.1 kmCalmMostly Cloudy
1:36 PM4 °C-2 °C65 %1026.1 hPa16.1 kmSouth (190°)5.6 km/hMostly Cloudy
1:56 PM4 °C-2 °C65 %1026.1 hPa16.1 kmWSW (240°)9.3 km/hMostly Cloudy
2:16 PM4 °C-2 °C65 %1025.7 hPa16.1 kmSouth (190°)9.3 km/hMostly Cloudy
2:36 PM3 °C-2 °C70 %1025.4 hPa16.1 kmSSE (150°)5.6 km/hMostly Cloudy
2:56 PM4 °C-2 °C65 %1025.4 hPa16.1 kmSSE (160°)14.8 km/hMostly Cloudy
3:16 PM4 °C-2 °C65 %1025.1 hPa16.1 kmSSE (160°)9.3 km/hMostly Cloudy
3:36 PM4 °C-2 °C65 %1024.7 hPa16.1 kmCalmMostly Cloudy
3:56 PM3 °C-2 °C70 %1024.4 hPa16.1 kmESE (120°)5.6 km/hOvercast
4:16 PM3 °C-2 °C70 %1024.4 hPa16.1 kmSE (140°)9.3 km/hOvercast
4:36 PM3 °C-3 °C65 %1024.4 hPa16.1 kmCalmOvercast
4:56 PM3 °C-3 °C65 %1024.7 hPa16.1 kmCalmOvercast
5:16 PM3 °C-3 °C65 %1024.7 hPa16.1 kmNorth (10°)5.6 km/hOvercast
5:36 PM3 °C-3 °C65 %1024.7 hPa16.1 kmCalmOvercast
5:56 PM3 °C-3 °C65 %1024.4 hPa16.1 kmSE (140°)7.4 km/hOvercast
6:16 PM4 °C-3 °C61 %1024 hPa16.1 kmESE (120°)11.1 km/hOvercast
6:36 PM4 °C-3 °C61 %1024 hPa16.1 kmSSE (150°)9.3 km/hOvercast
6:56 PM4 °C-3 °C61 %1024 hPa16.1 kmSE (130°)11.1 km/hOvercast
7:16 PM3 °C-3 °C65 %1023.7 hPa16.1 kmESE (120°)11.1 km/hOvercast
7:56 PM3 °C-2 °C70 %1023.4 hPa16.1 kmESE (110°)14.8 km/hOvercast
8:16 PM3 °C-2 °C70 %1023.4 hPa16.1 kmESE (110°)14.8 km/hOvercast
8:36 PM3 °C-2 °C70 %1023.4 hPa16.1 kmEast (100°)14.8 km/hOvercast
8:56 PM-17.8 °C-17.8 °C16.1 kmNorthOvercast
9:48 PM3 °C-1 °C75 %1023.4 hPa16.1 kmEast (100°)11.1 km/hRainLight Rain
Hourly data recorded from PAPG, located 0 kilometers away from Saint John Harbor, Alaska







STORIES FROM OUR PARTNERS